Location: Carter Cabin
(41.0271°N, 122.9339°W)
Time: 14:01:45
(UTC+00:00)

Cosmos 1470 Rocket - Pass Details

Date: 13 April 2024
Orbit: 601 x 629 km, 82.5° (Epoch: 22 May)

Event Time Altitude Azimuth Distance (km) Brightness Sun altitude
Rises 12:22:29 0° 353° (N) 2,888 7.2 -13.7°
Reaches altitude 10° 12:24:42 10° 355° (N) 1,984 6.4 -13.3°
Maximum altitude 12:29:06 79° 82° (E) 635 3.7 -12.5°
Drops below altitude 10° 12:33:30 10° 169° (S) 1,985 6.0 -11.8°
Sets 12:35:44 0° 171° (S) 2,891 6.9 -11.4°
